Weather History for Torrington, WY

Change the Weather History Date:

Tuesday, June 25, 2013

  Actual Average Record
Temperature  
Mean Temperature 74 °F 70 °F  
Max Temperature 88 °F 85 °F 104 °F (2007)
Min Temperature 60 °F 54 °F 44 °F (1998)
Degree Days  
Heating Degree Days 0 1  
Month to date heating degree days 34 72  
Since 1 June heating degree days 34 72  
Since 1 July heating degree days 6514 6583  
Cooling Degree Days 9 6  
Month to date cooling degree days 108 84  
Year to date cooling degree days 147 102  
Since 1 June cooling degree days 108 84  
Growing Degree Days 24 (Base 50)    
Moisture  
Dew Point 49 °F    
Average Humidity 56    
Maximum Humidity 93    
Minimum Humidity 19    
Precipitation  
Precipitation 0.00 in 0.07 in 0.16 in (2005)
Month to date precipitation 1.66 2.17  
Year to date precipitation 5.42 7.65  
Sea Level Pressure  
Sea Level Pressure 29.69 in    
Wind  
Wind Speed 9 mph (WNW)    
Max Wind Speed 26 mph    
Max Gust Speed 37 mph    
Visibility 10 miles    
Events      
T = Trace of Precipitation, MM = Missing Value Source: NWS Daily Summary

Daily Weather History Graph

Daily Weather History Graph

Search for Another Location

Airport:

Trip Planner

Search our weather history database for the weather conditions in past years. The results will help you decide how hot, cold, wet, or windy it might be!

Date:

Astronomy

Jun. 25, 2013 Rise Set
Actual Time 5:22 AM MDT 8:36 PM MDT
Civil Twilight 4:47 AM MDT 9:10 PM MDT
Nautical Twilight 4:03 AM MDT 9:55 PM MDT
Astronomical Twilight 3:09 AM MDT 10:49 PM MDT
Moon 10:19 PM MDT 8:07 AM MDT
Length of Visible Light 16h 23m
Length of Day
15h 14m
Waning Gibbous, 92% of the Moon is Illuminated
Jun 25
Waning Gibbous
Jun 29
Last Quarter
Jul 8
New
Jul 15
First Quarter
Jul 22
Full

Hourly Weather History & Observations

Time (MDT) Temp. Dew Point Humidity Pressure Visibility Wind Dir Wind Speed Gust Speed Precip Events Conditions
12:53 AM 69.1 °F 57.0 °F 65% 29.61 in 10.0 mi SE 13.8 mph 24.2 mph N/A   Clear
1:53 AM 66.9 °F 59.0 °F 76% 29.64 in 10.0 mi SSW 3.5 mph - N/A   Clear
2:53 AM 66.0 °F 62.1 °F 87% 29.63 in 10.0 mi Calm Calm - N/A   Clear
3:53 AM 63.0 °F 60.1 °F 90% 29.64 in 10.0 mi Calm Calm - N/A   Unknown
4:53 AM 63.0 °F 60.1 °F 90% 29.62 in 10.0 mi North 5.8 mph - N/A   Partly Cloudy
5:53 AM 62.1 °F 60.1 °F 93% 29.65 in 10.0 mi Calm Calm - N/A   Clear
6:53 AM 64.0 °F 57.9 °F 80% 29.67 in 10.0 mi West 4.6 mph - N/A   Clear
7:53 AM 70.0 °F 46.0 °F 42% 29.71 in 10.0 mi West 13.8 mph - N/A   Clear
8:53 AM 73.9 °F 45.0 °F 35% 29.71 in 10.0 mi SW 19.6 mph - N/A   Clear
10:53 AM 81.0 °F 42.1 °F 25% 29.69 in 10.0 mi West 21.9 mph 34.5 mph N/A   Clear
11:53 AM 84.0 °F 41.0 °F 22% 29.68 in 10.0 mi NW 17.3 mph 28.8 mph N/A   Partly Cloudy
12:53 PM 84.0 °F 42.1 °F 23% 29.69 in 10.0 mi NW 11.5 mph 24.2 mph N/A   Clear
1:53 PM 84.9 °F 43.0 °F 23% 29.70 in 10.0 mi WNW 9.2 mph 26.5 mph N/A   Clear
2:53 PM 84.0 °F 42.1 °F 23% 29.70 in 10.0 mi WNW 10.4 mph 19.6 mph N/A   Mostly Cloudy
3:53 PM 84.9 °F 43.0 °F 23% 29.72 in 10.0 mi NW 11.5 mph - N/A   Scattered Clouds
4:53 PM 84.9 °F 42.1 °F 22% 29.70 in 10.0 mi NNW 8.1 mph 18.4 mph N/A   Partly Cloudy
5:53 PM 87.1 °F 43.0 °F 21% 29.70 in 10.0 mi West 10.4 mph - N/A   Partly Cloudy
6:53 PM 86.0 °F 39.9 °F 20% 29.70 in 10.0 mi WNW 12.7 mph - N/A   Clear
7:53 PM 82.0 °F 42.1 °F 24% 29.71 in 10.0 mi WNW 9.2 mph - N/A   Clear
8:53 PM 75.9 °F 45.0 °F 33% 29.73 in 10.0 mi Calm Calm - N/A   Clear
9:53 PM 77.0 °F 44.1 °F 31% 29.75 in 10.0 mi Calm Calm - N/A   Clear
10:53 PM 68.0 °F 51.1 °F 55% 29.78 in 10.0 mi East 6.9 mph - N/A   Clear
11:53 PM 66.0 °F 53.1 °F 63% 29.80 in 10.0 mi Variable 5.8 mph - N/A   Clear